Cosmos 1184 Rocket - Orbit

View from above orbital plane
View from above orbital plane
View from above satellite
View from above satellite

Ground track
Ground track

The orbit data is extracted from the following two-line orbital elements,

1 11822U 80044B   13140.52234279  .00005353  00000-0  20736-3 0  5626
2 11822 081.2401 192.9030 0021963 072.3691 287.9939 15.25743933804141
Epoch (UTC): 20 May 2013 12:32:10
Eccentricity: 0.0021963
inclination: 81.2401°
perigee height: 473 km
apogee height: 503 km
right ascension of ascending node: 192.9030°
argument of perigee: 72.3691°
revolutions per day: 15.25743933
mean anomaly at epoch: 287.9939°
orbit number at epoch: 80414

The dashed part of the orbit path shows where the satellite is in the earth's shadow,  

Developed and maintained by Chris Peat, Heavens-Above GmbH. Please read the updated FAQ before sending e-mail. Imprint. DLR